Weather History for Frankfort, KY

Change the Weather History Date:

Friday, February 1, 2013

  Actual Average Record
Temperature  
Mean Temperature 13 °F 34 °F  
Max Temperature 20 °F 43 °F 74 °F (1915)
Min Temperature 6 °F 24 °F -7 °F (1965)
Degree Days  
Heating Degree Days 52 31  
Month to date heating degree days 52 31  
Since 1 July heating degree days 2755 2869  
Cooling Degree Days 0 0  
Month to date cooling degree days 0 0  
Year to date cooling degree days 0 0  
Moisture  
Dew Point 4 °F    
Average Humidity 71    
Maximum Humidity 88    
Minimum Humidity 54    
Precipitation  
Precipitation T in 0.11 in 2.20 in (1923)
Month to date precipitation T 0.11  
Year to date precipitation 5.00 3.37  
Sea Level Pressure  
Sea Level Pressure 30.34 in    
Wind  
Wind Speed 5 mph (West)    
Max Wind Speed 20 mph    
Max Gust Speed 30 mph    
Visibility 10 miles    
Events Snow    
T = Trace of Precipitation, MM = Missing Value Source: NWS Daily Summary

Daily Weather History Graph

Daily Weather History Graph

Search for Another Location

Airport:

Trip Planner

Search our weather history database for the weather conditions in past years. The results will help you decide how hot, cold, wet, or windy it might be!

Date:

Astronomy

Feb. 01, 2013 Rise Set
Actual Time 7:44 AM EST 6:02 PM EST
Civil Twilight 7:16 AM EST 6:30 PM EST
Nautical Twilight 6:44 AM EST 7:02 PM EST
Astronomical Twilight 6:13 AM EST 7:33 PM EST
Moon No Moon Rise 10:22 AM EST
Length of Visible Light 11h 14m
Length of Day
10h 18m
Waning Gibbous, 70% of the Moon is Illuminated
Feb 1
Waning Gibbous
Feb 3
Last Quarter
Feb 10
New
Feb 17
First Quarter
Feb 25
Full

Hourly Weather History & Observations

Time (EST) Temp. Windchill Dew Point Humidity Pressure Visibility Wind Dir Wind Speed Gust Speed Precip Events Conditions
12:00 AM 19.4 °F 6.6 °F 12.2 °F 74% 30.05 in 7.0 mi WNW 12.7 mph 28.8 mph 0.00 in Snow Light Snow
12:40 AM 17.6 °F 3.7 °F 6.8 °F 63% 30.09 in 10.0 mi West 13.8 mph 26.5 mph 0.00 in   Mostly Cloudy
12:53 AM 17.1 °F 5.0 °F 8.1 °F 68% 30.14 in 10.0 mi WNW 10.4 mph 23.0 mph 0.00 in   Overcast
1:53 AM 14.0 °F 1.2 °F 3.9 °F 64% 30.21 in 8.0 mi WNW 10.4 mph 26.5 mph 0.00 in   Overcast
2:41 AM 12.2 °F -1.8 °F 3.2 °F 67% 30.21 in 10.0 mi West 11.5 mph 18.4 mph N/A   Overcast
2:53 AM 12.9 °F -2.2 °F 3.9 °F 67% 30.25 in 9.0 mi WNW 13.8 mph 23.0 mph N/A   Overcast
3:53 AM 12.0 °F -1.3 °F 1.9 °F 64% 30.29 in 10.0 mi WNW 10.4 mph 17.3 mph 0.00 in   Mostly Cloudy
4:18 AM 10.4 °F 2.2 °F 3.2 °F 73% 30.26 in 10.0 mi West 4.6 mph - N/A   Overcast
4:28 AM 10.4 °F -4.8 °F 3.2 °F 73% 30.26 in 10.0 mi West 12.7 mph 18.4 mph N/A   Overcast
4:53 AM 10.9 °F -1.8 °F -0.0 °F 61% 30.30 in 10.0 mi West 9.2 mph 17.3 mph N/A   Mostly Cloudy
5:53 AM 9.0 °F -0.9 °F -0.9 °F 64% 30.34 in 10.0 mi WNW 5.8 mph - N/A   Clear
6:53 AM 8.1 °F -3.2 °F -2.0 °F 64% 30.37 in 10.0 mi WNW 6.9 mph - N/A   Clear
7:53 AM 7.0 °F - -0.9 °F 70% 30.40 in 10.0 mi Calm Calm - N/A   Clear
8:53 AM 8.1 °F 1.4 °F -0.9 °F 67% 30.42 in 10.0 mi West 3.5 mph - N/A   Clear
9:53 AM 10.0 °F 0.4 °F -0.9 °F 61% 30.45 in 10.0 mi West 5.8 mph - N/A   Clear
10:53 AM 10.9 °F -0.8 °F -0.0 °F 61% 30.47 in 10.0 mi West 8.1 mph - N/A   Clear
11:53 AM 14.0 °F 2.9 °F 1.9 °F 59% 30.48 in 10.0 mi WSW 8.1 mph - N/A   Partly Cloudy
12:53 PM 15.1 °F 5.2 °F 3.0 °F 59% 30.48 in 10.0 mi Variable 6.9 mph - N/A   Partly Cloudy
1:53 PM 17.1 °F 7.6 °F 5.0 °F 59% 30.45 in 10.0 mi West 6.9 mph - N/A   Partly Cloudy
2:53 PM 17.1 °F 11.7 °F 3.9 °F 56% 30.43 in 10.0 mi Variable 3.5 mph - N/A   Clear
4:53 PM 19.0 °F 11.1 °F 6.1 °F 57% 30.42 in 10.0 mi SW 5.8 mph - N/A   Clear
5:53 PM 18.0 °F 11.1 °F 5.0 °F 57% 30.42 in 10.0 mi WSW 4.6 mph - N/A   Clear
6:53 PM 16.0 °F - 7.0 °F 68% 30.42 in 10.0 mi Calm Calm - N/A   Clear
7:53 PM 14.0 °F - 9.0 °F 80% 30.43 in 10.0 mi Calm Calm - N/A   Clear
8:53 PM 14.0 °F - 9.0 °F 80% 30.41 in 10.0 mi Calm Calm - N/A   Clear
9:53 PM 12.9 °F - 9.0 °F 84% 30.40 in 10.0 mi Calm Calm - N/A   Clear
10:53 PM 14.0 °F - 10.0 °F 84% 30.39 in 10.0 mi Calm Calm - N/A   Clear
11:53 PM 15.1 °F - 10.9 °F 84% 30.38 in 10.0 mi Calm Calm - N/A   Clear